• In Uzbekistan
  • List of Countries
  • For 7 days
  • Water Temperature
  • Satellite Maps
  • Weather Map
  • Weather Widgets
  • user-avatar
    Login

    Hourly Weather Kariba

    Today, 12 December, Wednesday

    Time Temperature Precipitation Wind Pressure Humidity
    00:00 +18°C° 0 mm 4 mps 727 mmHg 24%
    01:00 +17°C° 0 mm 4 mps 727 mmHg 25%
    02:00 +17°C° 0 mm 4 mps 726 mmHg 25%
    03:00 +15°C° 0 mm 4 mps 727 mmHg 25%
    04:00 +15°C° 0 mm 4 mps 727 mmHg 26%
    05:00 +15°C° 0 mm 4 mps 727 mmHg 27%
    06:00 +15°C° 0 mm 4 mps 727 mmHg 27%
    07:00 +15°C° 0 mm 5 mps 727 mmHg 26%
    08:00 +16°C° 0 mm 6 mps 728 mmHg 26%
    09:00 +19°C° 0 mm 6 mps 728 mmHg 24%
    10:00 +21°C° 0 mm 6 mps 728 mmHg 21%
    11:00 +23°C° 0 mm 6 mps 728 mmHg 19%
    12:00 +24°C° 0 mm 6 mps 728 mmHg 18%
    13:00 +26°C° 0 mm 6 mps 727 mmHg 16%
    14:00 +27°C° 0 mm 6 mps 726 mmHg 14%
    15:00 +26°C° 0 mm 5 mps 726 mmHg 14%
    16:00 +26°C° 0 mm 5 mps 726 mmHg 15%
    17:00 +25°C° 0 mm 5 mps 726 mmHg 15%
    18:00 +23°C° 0 mm 4 mps 726 mmHg 17%
    19:00 +21°C° 0 mm 4 mps 727 mmHg 19%
    20:00 +20°C° 0 mm 4 mps 727 mmHg 20%
    21:00 +20°C° 0 mm 4 mps 727 mmHg 22%
    22:00 +19°C° 0 mm 4 mps 727 mmHg 24%
    23:00 +18°C° 0 mm 4 mps 727 mmHg 26%

    Tomorrow, 13 December, Thursday

    Time Temperature Precipitation Wind Pressure Humidity
    00:00 +18°C° 0 mm 4 mps 727 mmHg 28%
    01:00 +17°C° 0 mm 4 mps 727 mmHg 31%
    02:00 +17°C° 0 mm 4 mps 726 mmHg 33%
    03:00 +15°C° 0 mm 4 mps 726 mmHg 36%
    04:00 +15°C° 0 mm 5 mps 726 mmHg 38%
    05:00 +14°C° 0 mm 5 mps 726 mmHg 41%
    06:00 +15°C° 0 mm 5 mps 727 mmHg 41%
    07:00 +15°C° 0 mm 5 mps 727 mmHg 40%
    08:00 +15°C° 0 mm 6 mps 727 mmHg 40%
    09:00 +17°C° 0 mm 6 mps 728 mmHg 35%
    10:00 +20°C° 0 mm 6 mps 728 mmHg 30%
    11:00 +22°C° 0 mm 6 mps 728 mmHg 26%
    12:00 +23°C° 0 mm 6 mps 727 mmHg 23%
    13:00 +24°C° 0 mm 6 mps 727 mmHg 20%
    14:00 +26°C° 0 mm 6 mps 726 mmHg 18%
    15:00 +26°C° 0 mm 5 mps 726 mmHg 18%
    16:00 +25°C° 0 mm 5 mps 726 mmHg 18%
    17:00 +25°C° 0 mm 5 mps 725 mmHg 18%
    18:00 +22°C° 0 mm 4 mps 726 mmHg 20%
    19:00 +21°C° 0 mm 4 mps 726 mmHg 22%
    20:00 +20°C° 0 mm 4 mps 726 mmHg 23%
    21:00 +19°C° 0 mm 4 mps 727 mmHg 25%
    22:00 +19°C° 0 mm 4 mps 727 mmHg 26%
    23:00 +18°C° 0 mm 4 mps 727 mmHg 27%

    Day after tomorrow, 14 December, Friday

    Time Temperature Precipitation Wind Pressure Humidity
    00:00 +17°C° 0 mm 4 mps 727 mmHg 28%
    01:00 +17°C° 0 mm 4 mps 726 mmHg 29%
    02:00 +15°C° 0 mm 4 mps 726 mmHg 30%
    03:00 +15°C° 0 mm 4 mps 726 mmHg 32%
    04:00 +14°C° 0 mm 4 mps 726 mmHg 34%
    05:00 +14°C° 0 mm 4 mps 726 mmHg 35%
    06:00 +14°C° 0 mm 4 mps 726 mmHg 35%
    07:00 +15°C° 0 mm 5 mps 727 mmHg 36%
    08:00 +15°C° 0 mm 5 mps 727 mmHg 36%
    09:00 +17°C° 0 mm 5 mps 727 mmHg 32%
    10:00 +20°C° 0 mm 5 mps 727 mmHg 28%
    11:00 +22°C° 0 mm 5 mps 727 mmHg 23%
    12:00 +25°C° 0 mm 5 mps 726 mmHg 21%
    13:00 +26°C° 0 mm 4 mps 726 mmHg 18%
    14:00 +27°C° 0 mm 4 mps 725 mmHg 16%
    15:00 +26°C° 0 mm 4 mps 725 mmHg 16%
    16:00 +26°C° 0 mm 4 mps 725 mmHg 16%
    17:00 +26°C° 0 mm 3 mps 724 mmHg 16%
    18:00 +24°C° 0 mm 3 mps 725 mmHg 18%
    19:00 +22°C° 0 mm 4 mps 725 mmHg 20%
    20:00 +21°C° 0 mm 4 mps 726 mmHg 21%
    21:00 +20°C° 0 mm 4 mps 726 mmHg 22%
    22:00 +19°C° 0 mm 4 mps 726 mmHg 23%
    23:00 +19°C° 0 mm 4 mps 726 mmHg 24%

    15 December, Saturday

    Time Temperature Precipitation Wind Pressure Humidity
    00:00 +18°C° 0 mm 4 mps 725 mmHg 25%
    01:00 +18°C° 0 mm 4 mps 725 mmHg 26%
    02:00 +17°C° 0 mm 4 mps 725 mmHg 26%
    03:00 +17°C° 0 mm 4 mps 725 mmHg 27%
    04:00 +15°C° 0 mm 4 mps 725 mmHg 28%
    05:00 +15°C° 0 mm 4 mps 725 mmHg 29%
    06:00 +15°C° 0 mm 4 mps 725 mmHg 28%
    07:00 +17°C° 0 mm 4 mps 726 mmHg 28%
    08:00 +17°C° 0 mm 4 mps 726 mmHg 27%
    09:00 +19°C° 0 mm 4 mps 726 mmHg 24%
    10:00 +21°C° 0 mm 4 mps 726 mmHg 21%
    11:00 +23°C° 0 mm 4 mps 726 mmHg 18%
    12:00 +25°C° 0 mm 4 mps 725 mmHg 17%
    13:00 +27°C° 0 mm 3 mps 724 mmHg 15%
    14:00 +28°C° 0 mm 3 mps 724 mmHg 14%
    15:00 +27°C° 0 mm 3 mps 723 mmHg 14%
    16:00 +27°C° 0 mm 3 mps 723 mmHg 14%
    17:00 +26°C° 0 mm 3 mps 723 mmHg 14%
    18:00 +25°C° 0 mm 3 mps 724 mmHg 15%
    19:00 +24°C° 0 mm 3 mps 724 mmHg 17%
    20:00 +21°C° 0 mm 3 mps 724 mmHg 18%
    21:00 +21°C° 0 mm 3 mps 724 mmHg 19%
    22:00 +20°C° 0 mm 3 mps 724 mmHg 21%
    23:00 +19°C° 0 mm 3 mps 724 mmHg 22%

    16 December, Sunday

    Time Temperature Precipitation Wind Pressure Humidity
    00:00 +19°C° 0 mm 3 mps 724 mmHg 23%
    01:00 +18°C° 0 mm 3 mps 724 mmHg 24%
    02:00 +18°C° 0 mm 3 mps 723 mmHg 25%
    03:00 +17°C° 0 mm 3 mps 723 mmHg 26%
    04:00 +17°C° 0 mm 3 mps 724 mmHg 26%
    05:00 +17°C° 0 mm 3 mps 724 mmHg 27%
    06:00 +17°C° 0 mm 3 mps 724 mmHg 26%
    07:00 +18°C° 0 mm 3 mps 725 mmHg 26%
    08:00 +18°C° 0 mm 3 mps 725 mmHg 25%
    09:00 +20°C° 0 mm 3 mps 725 mmHg 22%
    10:00 +22°C° 0 mm 4 mps 725 mmHg 19%
    11:00 +25°C° 0 mm 4 mps 725 mmHg 16%
    12:00 +26°C° 0 mm 4 mps 725 mmHg 14%
    13:00 +27°C° 0 mm 4 mps 724 mmHg 13%
    14:00 +29°C° 0 mm 4 mps 723 mmHg 11%
    15:00 +28°C° 0 mm 4 mps 724 mmHg 11%
    16:00 +28°C° 0 mm 4 mps 724 mmHg 11%
    17:00 +27°C° 0 mm 4 mps 724 mmHg 11%
    18:00 +26°C° 0 mm 4 mps 724 mmHg 12%
    19:00 +23°C° 0 mm 4 mps 725 mmHg 13%
    20:00 +22°C° 0 mm 4 mps 725 mmHg 15%
    21:00 +21°C° 0 mm 4 mps 725 mmHg 15%
    22:00 +21°C° 0 mm 4 mps 726 mmHg 16%
    23:00 +20°C° 0 mm 4 mps 726 mmHg 17%

    17 December, Monday

    Time Temperature Precipitation Wind Pressure Humidity
    00:00 +19°C° 0 mm 4 mps 725 mmHg 17%
    01:00 +19°C° 0 mm 4 mps 725 mmHg 17%
    02:00 +18°C° 0 mm 4 mps 725 mmHg 17%
    03:00 +18°C° 0 mm 4 mps 725 mmHg 18%
    04:00 +17°C° 0 mm 4 mps 725 mmHg 19%
    05:00 +17°C° 0 mm 4 mps 725 mmHg 20%
    06:00 +17°C° 0 mm 4 mps 726 mmHg 20%
    07:00 +17°C° 0 mm 5 mps 726 mmHg 20%
    08:00 +17°C° 0 mm 5 mps 727 mmHg 20%
    09:00 +20°C° 0 mm 6 mps 727 mmHg 17%
    10:00 +22°C° 0 mm 7 mps 727 mmHg 15%
    11:00 +24°C° 0 mm 8 mps 727 mmHg 13%
    12:00 +26°C° 0 mm 8 mps 727 mmHg 12%
    13:00 +26°C° 0 mm 8 mps 726 mmHg 11%
    14:00 +27°C° 0 mm 8 mps 725 mmHg 11%
    15:00 +26°C° 0 mm 7 mps 725 mmHg 11%
    16:00 +26°C° 0 mm 7 mps 725 mmHg 11%
    17:00 +24°C° 0 mm 6 mps 725 mmHg 11%
    18:00 +23°C° 0 mm 6 mps 726 mmHg 12%
    19:00 +21°C° 0 mm 5 mps 726 mmHg 13%
    20:00 +20°C° 0 mm 5 mps 727 mmHg 14%
    21:00 +19°C° 0 mm 5 mps 727 mmHg 16%
    22:00 +19°C° 0 mm 5 mps 727 mmHg 17%
    23:00 +17°C° 0 mm 5 mps 727 mmHg 19%
    Show more